| time (UTC) | temp F | wind direction | speed MPH | gust MPH | rain 1hr in | rain 24hr in | rain mn in | humidity % | barometer mb |
| 20260901235406 | 69 | 62 | 2.0 | 6.0 | 0.00 | 0.09 | 0.00 | 44 | 1023.2 |
| 20260901234505 | 68 | 100 | 2.0 | 5.0 | 0.00 | 0.11 | 0.00 | 38 | 1024.3 |
| 20260901233606 | 68 | 177 | 1.0 | 3.0 | 0.00 | 0.12 | 0.00 | 42 | 1024.3 |
| 20260901232707 | 66 | 182 | 1.0 | 2.0 | 0.00 | 0.12 | 0.00 | 44 | 1024.3 |
| 20260901231804 | 67 | 181 | 1.0 | 4.0 | 0.00 | 0.13 | 0.00 | 42 | 1024.3 |
| 20260901230905 | 68 | 109 | 1.0 | 4.0 | 0.00 | 0.15 | 0.00 | 43 | 1024.3 |
| 20260901230027 | 69 | 96 | 2.0 | 7.0 | 0.00 | 0.15 | 0.00 | 36 | 1024.3 |
| 20260901225407 | 68 | 108 | 2.0 | 7.0 | 0.00 | 0.15 | 0.00 | 41 | 1024.3 |
| 20260901224505 | 68 | 168 | 2.0 | 6.0 | 0.00 | 0.15 | 0.00 | 42 | 1024.3 |
| 20260901223604 | 68 | 125 | 2.0 | 10.0 | 0.00 | 0.15 | 0.00 | 41 | 1024.3 |
| 20260901222705 | 68 | 149 | 2.0 | 7.0 | 0.00 | 0.15 | 0.00 | 42 | 1024.3 |
| 20260901221804 | 69 | 326 | 3.0 | 12.0 | 0.00 | 0.15 | 0.00 | 38 | 1024.3 |
| 20260901220905 | 69 | 290 | 2.0 | 7.0 | 0.00 | 0.15 | 0.00 | 41 | 1024.3 |
| 20260901220005 | 69 | 263 | 3.0 | 8.0 | 0.00 | 0.15 | 0.00 | 38 | 1024.3 |
| 20260901215404 | 69 | 285 | 3.0 | 10.0 | 0.00 | 0.15 | 0.00 | 37 | 1024.3 |
| 20260901214504 | 69 | 245 | 3.0 | 10.0 | 0.00 | 0.15 | 0.00 | 39 | 1024.3 |
| 20260901213605 | 69 | 259 | 2.0 | 7.0 | 0.00 | 0.15 | 0.00 | 37 | 1024.3 |
| 20260901212705 | 70 | 265 | 3.0 | 8.0 | 0.00 | 0.15 | 0.00 | 36 | 1024.3 |
| 20260901211825 | 70 | 237 | 3.0 | 8.0 | 0.00 | 0.15 | 0.00 | 36 | 1024.3 |
| 20260901210905 | 70 | 269 | 3.0 | 9.0 | 0.00 | 0.15 | 0.00 | 35 | 1024.3 |
| 20260901210005 | 68 | 253 | 2.0 | 7.0 | 0.00 | 0.15 | 0.00 | 41 | 1024.3 |
| 20260901205405 | 66 | 255 | 3.0 | 9.0 | 0.00 | 0.15 | 0.00 | 41 | 1024.3 |
| 20260901204505 | 65 | 268 | 3.0 | 11.0 | 0.00 | 0.15 | 0.00 | 45 | 1024.3 |
| 20260901203625 | 65 | 245 | 4.0 | 12.0 | 0.00 | 0.15 | 0.00 | 42 | 1024.3 |
| 20260901202705 | 67 | 258 | 4.0 | 13.0 | 0.00 | 0.15 | 0.00 | 42 | 1024.3 |
| 20260901201804 | 68 | 283 | 2.0 | 7.0 | 0.00 | 0.15 | 0.00 | 41 | 1024.3 |
| 20260901200905 | 69 | 356 | 2.0 | 5.0 | 0.00 | 0.15 | 0.00 | 44 | 1024.3 |
| 20260901200006 | 71 | 52 | 2.0 | 6.0 | 0.00 | 0.15 | 0.00 | 39 | 1024.3 |
| 20260901195404 | 70 | 55 | 3.0 | 10.0 | 0.00 | 0.15 | 0.00 | 38 | 1024.3 |
| 20260901194505 | 70 | 32 | 2.0 | 8.0 | 0.00 | 0.15 | 0.00 | 37 | 1024.3 |
| 20260901193625 | 71 | 61 | 3.0 | 8.0 | 0.00 | 0.15 | 0.00 | 38 | 1024.3 |
| 20260901192705 | 72 | 59 | 4.0 | 10.0 | 0.00 | 0.15 | 0.00 | 36 | 1024.3 |
| 20260901191807 | 72 | 26 | 4.0 | 12.0 | 0.00 | 0.15 | 0.00 | 38 | 1024.3 |
| 20260901190905 | 72 | 29 | 2.0 | 4.0 | 0.00 | 0.15 | 0.00 | 43 | 1024.3 |
| 20260901190004 | 71 | 282 | 2.0 | 4.0 | 0.00 | 0.15 | 0.00 | 35 | 1025.1 |
| 20260901185403 | 69 | 264 | 3.0 | 8.0 | 0.00 | 0.15 | 0.00 | 40 | 1025.1 |
| 20260901184526 | 68 | 257 | 2.0 | 6.0 | 0.00 | 0.15 | 0.00 | 41 | 1025.1 |
| 20260901183604 | 69 | 291 | 2.0 | 7.0 | 0.00 | 0.15 | 0.00 | 40 | 1025.1 |
| 20260901182726 | 68 | 28 | 2.0 | 11.0 | 0.00 | 0.15 | 0.00 | 43 | 1025.1 |
| 20260901181804 | 71 | 2 | 4.0 | 11.0 | 0.00 | 0.15 | 0.00 | 35 | 1025.1 |
| 20260901180904 | 70 | 20 | 2.0 | 9.0 | 0.00 | 0.15 | 0.00 | 37 | 1025.1 |
| 20260901180004 | 71 | 70 | 2.0 | 4.0 | 0.00 | 0.15 | 0.00 | 35 | 1025.1 |
| 20260901175425 | 72 | 83 | 2.0 | 6.0 | 0.00 | 0.15 | 0.00 | 36 | 1025.1 |
| 20260901174526 | 71 | 64 | 3.0 | 8.0 | 0.00 | 0.15 | 0.00 | 36 | 1025.1 |
| 20260901173625 | 70 | 61 | 3.0 | 7.0 | 0.00 | 0.15 | 0.00 | 43 | 1025.1 |
| 20260901172726 | 70 | 110 | 2.0 | 7.0 | 0.00 | 0.15 | 0.00 | 40 | 1025.1 |
| 20260901171804 | 69 | 110 | 2.0 | 10.0 | 0.00 | 0.15 | 0.00 | 41 | 1025.1 |
| 20260901170905 | 68 | 15 | 4.0 | 11.0 | 0.00 | 0.15 | 0.00 | 43 | 1025.1 |
| 20260901170004 | 67 | 9 | 2.0 | 6.0 | 0.00 | 0.15 | 0.00 | 48 | 1025.2 |
| 20260901165403 | 66 | 96 | 1.0 | 3.0 | 0.00 | 0.15 | 0.00 | 52 | 1025.2 |
| 20260901164505 | 65 | 74 | 1.0 | 6.0 | 0.00 | 0.15 | 0.00 | 54 | 1025.2 |
| 20260901163604 | 64 | 59 | 2.0 | 5.0 | 0.00 | 0.15 | 0.00 | 58 | 1025.2 |
| 20260901162725 | 62 | 45 | 2.0 | 5.0 | 0.00 | 0.15 | 0.00 | 63 | 1025.2 |
| 20260901161804 | 60 | 47 | 2.0 | 6.0 | 0.00 | 0.15 | 0.00 | 73 | 1025.2 |
| 20260901160904 | 58 | 96 | 2.0 | 7.0 | 0.00 | 0.15 | 0.00 | 85 | 1025.2 |
| 20260901160006 | 57 | 107 | 2.0 | 6.0 | 0.00 | 0.15 | 0.00 | 89 | 1025.8 |
| 20260901155403 | 56 | 106 | 1.0 | 6.0 | 0.00 | 0.15 | 0.00 | 84 | 1025.8 |
| 20260901154504 | 54 | 86 | 1.0 | 4.0 | 0.00 | 0.15 | 0.00 | 84 | 1025.8 |
| 20260901153603 | 54 | 342 | 1.0 | 3.0 | 0.00 | 0.15 | 0.00 | 83 | 1025.8 |
| 20260901152704 | 53 | 330 | 0.0 | 3.0 | 0.00 | 0.15 | 0.00 | 84 | 1025.8 |
| 20260901151803 | 52 | 330 | 0.0 | 1.0 | 0.00 | 0.15 | 0.00 | 85 | 1025.8 |
| 20260901150904 | 52 | 0 | 0.0 | 0.0 | 0.00 | 0.15 | 0.00 | 86 | 1025.8 |
| 20260901150003 | 51 | 0 | 0.0 | 0.0 | 0.00 | 0.15 | 0.00 | 86 | 1025.8 |
| 20260901143606 | 50 | 0 | 0.0 | 0.0 | 0.00 | 0.15 | 0.00 | 87 | 1025.7 |
| 20260901142705 | 50 | 0 | 0.0 | 0.0 | 0.00 | 0.15 | 0.00 | 88 | 1025.7 |
| 20260901141805 | 50 | 0 | 0.0 | 0.0 | 0.00 | 0.15 | 0.00 | 88 | 1025.7 |
| 20260901140905 | 49 | 0 | 0.0 | 0.0 | 0.00 | 0.15 | 0.00 | 89 | 1025.7 |
| 20260901140027 | 49 | 0 | 0.0 | 0.0 | 0.00 | 0.15 | 0.00 | 89 | 1024.3 |
| 20260901135406 | 49 | 0 | 0.0 | 0.0 | 0.00 | 0.15 | 0.00 | 89 | 1024.3 |
| 20260901134505 | 49 | 0 | 0.0 | 0.0 | 0.00 | 0.15 | 0.00 | 89 | 1024.3 |
| 20260901133605 | 48 | 0 | 0.0 | 0.0 | 0.00 | 0.15 | 0.00 | 90 | 1024.3 |
| 20260901132705 | 48 | 0 | 0.0 | 0.0 | 0.00 | 0.15 | 0.00 | 90 | 1024.3 |
| 20260901131805 | 48 | 0 | 0.0 | 0.0 | 0.00 | 0.15 | 0.00 | 90 | 1024.3 |
| 20260901130926 | 48 | 0 | 0.0 | 0.0 | 0.00 | 0.15 | 0.00 | 90 | 1024.3 |
| 20260901130006 | 48 | 0 | 0.0 | 0.0 | 0.00 | 0.15 | 0.00 | 90 | 1024.3 |
| 20260901125426 | 48 | 0 | 0.0 | 0.0 | 0.00 | 0.15 | 0.00 | 90 | 1024.3 |
| 20260901124526 | 49 | 0 | 0.0 | 0.0 | 0.00 | 0.15 | 0.00 | 90 | 1024.3 |
| 20260901123605 | 49 | 0 | 0.0 | 0.0 | 0.00 | 0.15 | 0.00 | 90 | 1024.3 |
| 20260901122705 | 49 | 0 | 0.0 | 0.0 | 0.00 | 0.15 | 0.00 | 90 | 1024.3 |
| 20260901121826 | 49 | 0 | 0.0 | 0.0 | 0.00 | 0.15 | 0.00 | 90 | 1024.3 |
| 20260901120905 | 49 | 0 | 0.0 | 0.0 | 0.00 | 0.15 | 0.00 | 90 | 1024.3 |
| 20260901120027 | 49 | 0 | 0.0 | 0.0 | 0.00 | 0.15 | 0.00 | 90 | 1024.4 |
| 20260901115405 | 49 | 0 | 0.0 | 0.0 | 0.00 | 0.15 | 0.00 | 90 | 1024.4 |
| 20260901114505 | 49 | 0 | 0.0 | 0.0 | 0.00 | 0.15 | 0.00 | 90 | 1024.4 |
| 20260901113605 | 49 | 0 | 0.0 | 0.0 | 0.00 | 0.15 | 0.00 | 90 | 1024.7 |
| 20260901112705 | 49 | 0 | 0.0 | 0.0 | 0.00 | 0.15 | 0.00 | 90 | 1024.7 |
| 20260901111826 | 49 | 0 | 0.0 | 0.0 | 0.00 | 0.15 | 0.00 | 90 | 1024.7 |
| 20260901110905 | 49 | 0 | 0.0 | 0.0 | 0.00 | 0.15 | 0.00 | 90 | 1024.7 |
| 20260901110005 | 50 | 0 | 0.0 | 0.0 | 0.00 | 0.15 | 0.00 | 90 | 1024.7 |
| 20260901105426 | 50 | 0 | 0.0 | 0.0 | 0.00 | 0.15 | 0.00 | 90 | 1024.7 |
| 20260901104526 | 50 | 0 | 0.0 | 0.0 | 0.00 | 0.15 | 0.00 | 91 | 1024.7 |
| 20260901103606 | 50 | 0 | 0.0 | 0.0 | 0.00 | 0.15 | 0.00 | 91 | 1024.7 |
| 20260901102704 | 50 | 0 | 0.0 | 0.0 | 0.00 | 0.15 | 0.00 | 90 | 1024.7 |
| 20260901101826 | 50 | 329 | 0.0 | 1.0 | 0.00 | 0.15 | 0.00 | 90 | 1024.7 |
| 20260901100905 | 50 | 0 | 0.0 | 0.0 | 0.00 | 0.15 | 0.00 | 90 | 1024.7 |
| 20260901095405 | 50 | 0 | 0.0 | 0.0 | 0.00 | 0.15 | 0.00 | 91 | 1025.4 |
| 20260901094525 | 51 | 0 | 0.0 | 0.0 | 0.00 | 0.15 | 0.00 | 91 | 1025.4 |
| 20260901093605 | 51 | 0 | 0.0 | 0.0 | 0.00 | 0.15 | 0.00 | 90 | 1025.4 |
| 20260901092726 | 51 | 0 | 0.0 | 0.0 | 0.00 | 0.15 | 0.00 | 90 | 1025.4 |
| 20260901091804 | 51 | 0 | 0.0 | 0.0 | 0.00 | 0.15 | 0.00 | 90 | 1025.4 |
| 20260901090904 | 51 | 0 | 0.0 | 0.0 | 0.00 | 0.15 | 0.00 | 90 | 1025.4 |
| 20260901090026 | 51 | 0 | 0.0 | 0.0 | 0.00 | 0.15 | 0.00 | 90 | 1025.4 |
| 20260901085404 | 51 | 0 | 0.0 | 0.0 | 0.00 | 0.15 | 0.00 | 90 | 1025.4 |
| 20260901084504 | 51 | 0 | 0.0 | 0.0 | 0.00 | 0.15 | 0.00 | 90 | 1025.4 |
| 20260901083625 | 51 | 0 | 0.0 | 0.0 | 0.00 | 0.15 | 0.00 | 90 | 1025.4 |
| 20260901082704 | 51 | 0 | 0.0 | 0.0 | 0.00 | 0.15 | 0.00 | 90 | 1025.4 |
| 20260901081805 | 52 | 0 | 0.0 | 0.0 | 0.00 | 0.15 | 0.00 | 90 | 1025.4 |
| 20260901080904 | 52 | 0 | 0.0 | 0.0 | 0.00 | 0.15 | 0.00 | 90 | 1025.9 |
| 20260901080004 | 52 | 0 | 0.0 | 0.0 | 0.00 | 0.15 | 0.00 | 90 | 1025.9 |
| 20260901075404 | 52 | 0 | 0.0 | 0.0 | 0.00 | 0.15 | 0.00 | 90 | 1025.9 |
| 20260901074504 | 52 | 0 | 0.0 | 0.0 | 0.00 | 0.15 | 0.00 | 90 | 1025.9 |
| 20260901073604 | 52 | 0 | 0.0 | 0.0 | 0.00 | 0.15 | 0.00 | 90 | 1025.9 |
| 20260901072704 | 52 | 0 | 0.0 | 0.0 | 0.00 | 0.15 | 0.00 | 90 | 1025.9 |
| 20260901071804 | 52 | 0 | 0.0 | 0.0 | 0.00 | 0.15 | 0.00 | 90 | 1025.9 |
| 20260901070904 | 52 | 0 | 0.0 | 0.0 | 0.00 | 0.15 | 0.00 | 90 | 1026.4 |
| 20260901070008 | 52 | 0 | 0.0 | 0.0 | 0.00 | 0.15 | 0.00 | 90 | 1026.4 |
| 20260901065404 | 52 | 0 | 0.0 | 0.0 | 0.00 | 0.15 | 0.00 | 90 | 1026.4 |
| 20260901064504 | 52 | 0 | 0.0 | 0.0 | 0.00 | 0.15 | 0.00 | 90 | 1026.4 |
| 20260901063625 | 52 | 0 | 0.0 | 0.0 | 0.00 | 0.15 | 0.00 | 90 | 1026.4 |
| 20260901062704 | 52 | 0 | 0.0 | 0.0 | 0.00 | 0.15 | 0.00 | 90 | 1026.4 |
| 20260901061804 | 52 | 0 | 0.0 | 0.0 | 0.00 | 0.15 | 0.00 | 90 | 1026.4 |
| 20260901060904 | 52 | 0 | 0.0 | 0.0 | 0.00 | 0.15 | 0.00 | 90 | 1026.4 |
| 20260901060010 | 52 | 0 | 0.0 | 0.0 | 0.00 | 0.15 | 0.00 | 90 | 1026.4 |
| 20260901055425 | 52 | 0 | 0.0 | 0.0 | 0.00 | 0.15 | 0.15 | 90 | 1026.4 |
| 20260901054504 | 52 | 0 | 0.0 | 0.0 | 0.00 | 0.15 | 0.15 | 90 | 1026.4 |
| 20260901053604 | 52 | 0 | 0.0 | 0.0 | 0.00 | 0.15 | 0.15 | 90 | 1026.4 |
| 20260901052704 | 52 | 0 | 0.0 | 0.0 | 0.00 | 0.15 | 0.15 | 90 | 1026.4 |
| 20260901051804 | 52 | 0 | 0.0 | 0.0 | 0.00 | 0.15 | 0.15 | 90 | 1026.4 |
| 20260901050903 | 52 | 0 | 0.0 | 0.0 | 0.00 | 0.15 | 0.15 | 90 | 1025.4 |
| 20260901050004 | 52 | 329 | 0.0 | 1.0 | 0.01 | 0.15 | 0.15 | 90 | 1025.4 |
| 20260901045403 | 52 | 329 | 0.0 | 1.0 | 0.01 | 0.15 | 0.15 | 90 | 1025.4 |
| 20260901044506 | 53 | 0 | 0.0 | 0.0 | 0.01 | 0.15 | 0.15 | 90 | 1025.4 |
| 20260901043604 | 53 | 0 | 0.0 | 0.0 | 0.01 | 0.15 | 0.15 | 90 | 1025.4 |
| 20260901042703 | 53 | 0 | 0.0 | 0.0 | 0.01 | 0.15 | 0.15 | 90 | 1025.4 |
| 20260901041803 | 53 | 0 | 0.0 | 0.0 | 0.01 | 0.15 | 0.15 | 90 | 1025.4 |
| 20260901040903 | 53 | 0 | 0.0 | 0.0 | 0.01 | 0.15 | 0.15 | 90 | 1025.4 |
| 20260901040004 | 53 | 0 | 0.0 | 0.0 | 0.00 | 0.14 | 0.14 | 90 | 1025.4 |
| 20260901035403 | 53 | 0 | 0.0 | 0.0 | 0.00 | 0.14 | 0.14 | 90 | 1025.4 |
| 20260901034503 | 53 | 0 | 0.0 | 0.0 | 0.00 | 0.14 | 0.14 | 90 | 1025.4 |
| 20260901033608 | 54 | 337 | 0.0 | 2.0 | 0.00 | 0.14 | 0.14 | 90 | 1025.4 |
| 20260901032708 | 54 | 346 | 0.0 | 4.0 | 0.01 | 0.14 | 0.14 | 90 | 1025.4 |
| 20260901031808 | 54 | 0 | 0.0 | 0.0 | 0.01 | 0.14 | 0.14 | 90 | 1025.4 |
| 20260901030908 | 54 | 355 | 0.0 | 1.0 | 0.02 | 0.14 | 0.14 | 90 | 1025.4 |
| 20260901030008 | 54 | 0 | 0.0 | 0.0 | 0.03 | 0.14 | 0.14 | 90 | 1025.4 |
| 20260901025408 | 55 | 0 | 0.0 | 0.0 | 0.05 | 0.14 | 0.14 | 89 | 1025.4 |
| 20260901024508 | 55 | 0 | 0.0 | 0.0 | 0.07 | 0.14 | 0.14 | 90 | 1025.4 |
| 20260901023608 | 55 | 0 | 0.0 | 0.0 | 0.08 | 0.14 | 0.14 | 90 | 1025.4 |
| 20260901022708 | 55 | 0 | 0.0 | 0.0 | 0.07 | 0.13 | 0.13 | 89 | 1025.4 |
| 20260901021808 | 56 | 0 | 0.0 | 0.0 | 0.07 | 0.13 | 0.13 | 90 | 1025.4 |
| 20260901020908 | 56 | 0 | 0.0 | 0.0 | 0.06 | 0.12 | 0.12 | 90 | 1025.4 |
| 20260901020008 | 56 | 0 | 0.0 | 0.0 | 0.05 | 0.11 | 0.11 | 89 | 1025.4 |
| 20260901015408 | 56 | 0 | 0.0 | 0.0 | 0.03 | 0.09 | 0.09 | 89 | 1025.4 |
| 20260901014529 | 56 | 351 | 0.0 | 1.0 | 0.01 | 0.07 | 0.07 | 89 | 1025.4 |
| 20260901013608 | 56 | 0 | 0.0 | 0.0 | 0.00 | 0.06 | 0.06 | 89 | 1025.4 |
| 20260901012708 | 56 | 0 | 0.0 | 0.0 | 0.00 | 0.06 | 0.06 | 89 | 1025.4 |
| 20260901011808 | 56 | 0 | 0.0 | 0.0 | 0.00 | 0.06 | 0.06 | 89 | 1025.4 |
| 20260901010908 | 56 | 0 | 0.0 | 0.0 | 0.00 | 0.06 | 0.06 | 89 | 1025.4 |
| 20260901010030 | 57 | 0 | 0.0 | 0.0 | 0.00 | 0.06 | 0.06 | 89 | 1025.4 |
| 20260901005408 | 57 | 0 | 0.0 | 0.0 | 0.00 | 0.06 | 0.06 | 89 | 1025.4 |
| 20260901004508 | 57 | 0 | 0.0 | 0.0 | 0.02 | 0.06 | 0.06 | 89 | 1025.4 |
| 20260901003608 | 57 | 0 | 0.0 | 0.0 | 0.03 | 0.06 | 0.06 | 89 | 1025.4 |
| 20260901002708 | 57 | 349 | 0.0 | 2.0 | 0.03 | 0.06 | 0.06 | 89 | 1025.4 |
| 20260901001807 | 58 | 0 | 0.0 | 0.0 | 0.04 | 0.06 | 0.06 | 89 | 1025.4 |
| 20260901000911 | 57 | 0 | 0.0 | 0.0 | 0.06 | 0.06 | 0.06 | 89 | 1025.4 |
| 20260901000029 | 57 | 0 | 0.0 | 0.0 | 0.06 | 0.06 | 0.06 | 89 | 1025.4 |